Leesburg, VA

7:32 AM EST on December 11, 2019 (GMT -0500)
Leesburg Executive

Weather History for KJYO - November, 2019

Change the Weather History Date:

Sunday, November 17, 2019

  Actual Average (KIAD) Record (KIAD)
Temperature  
Mean Temperature 36 °F -  
Max Temperature 41 °F 55 °F 75 °F (1963)
Min Temperature 32 °F 32 °F 17 °F (1976)
Degree Days  
Heating Degree Days 28    
Moisture  
Dew Point 22 °F    
Average Humidity 58    
Maximum Humidity 87    
Minimum Humidity 41    
Precipitation  
Precipitation 0.00 in - - ()
Sea Level Pressure  
Sea Level Pressure 30.21 in    
Wind  
Wind Speed 7 mph (NNE)    
Max Wind Speed 10 mph    
Max Gust Speed -    
Visibility 10 miles    
Events      
Averages and records for this station are not official NWS values.
T = Trace of Precipitation, MM = Missing Value Source: NWS Daily Summary

Daily Weather History Graph

Daily Weather History Graph

Search for Another Location

Airport or City:

Astronomy

Nov. 17, 2019 Rise Set
Actual Time 6:55 AM EST 4:54 PM EST
Civil Twilight 6:26 AM EST 5:23 PM EST
Nautical Twilight 5:54 AM EST 5:55 PM EST
Astronomical Twilight 5:22 AM EST 6:27 PM EST
Moon 9:29 PM EST (11/17) 11:38 AM EST (11/17)
Length of Visible Light 10h 56m
Length of Day
9h 59m
Waning Gibbous, 73% of the Moon is Illuminated
Nov 17
Waning Gibbous
Nov 19
Last Quarter
Nov 26
New
Dec 4
First Quarter
Dec 12
Full

Hourly Weather History & Observations

Time (EST) Temp. Windchill Dew Point Humidity Pressure Visibility Wind Dir Wind Speed Gust Speed Precip Events Conditions
12:15 AM 33.8 °F 27.0 °F 12.2 °F 41% 30.37 in 10.0 mi NNE 8.1 mph - N/A   Overcast
12:35 AM 33.8 °F 27.7 °F 12.2 °F 41% 30.36 in 10.0 mi North 6.9 mph - N/A   Overcast
12:55 AM 33.8 °F 27.0 °F 12.2 °F 41% 30.36 in 10.0 mi NNE 8.1 mph - N/A   Overcast
1:35 AM 33.8 °F 27.7 °F 12.2 °F 41% 30.36 in 10.0 mi NNE 6.9 mph - N/A   Overcast
1:55 AM 33.8 °F 26.4 °F 12.2 °F 41% 30.35 in 10.0 mi NNE 9.2 mph - N/A   Overcast
2:15 AM 33.8 °F 28.6 °F 12.2 °F 41% 30.34 in 10.0 mi NNE 5.8 mph - N/A   Overcast
2:35 AM 33.8 °F 27.0 °F 12.2 °F 41% 30.34 in 10.0 mi NNE 8.1 mph - N/A   Overcast
2:55 AM 33.8 °F 27.0 °F 12.2 °F 41% 30.33 in 10.0 mi North 8.1 mph - N/A   Overcast
3:15 AM 33.8 °F 27.0 °F 12.2 °F 41% 30.33 in 10.0 mi NNE 8.1 mph - N/A   Overcast
3:35 AM 33.8 °F 27.7 °F 12.2 °F 41% 30.32 in 10.0 mi NNE 6.9 mph - N/A   Overcast
3:55 AM 32.0 °F 25.6 °F 12.2 °F 44% 30.31 in 10.0 mi NNE 6.9 mph - N/A   Overcast
4:15 AM 32.0 °F 26.4 °F 12.2 °F 44% 30.32 in 10.0 mi NNE 5.8 mph - N/A   Overcast
4:35 AM 32.0 °F 23.6 °F 12.2 °F 44% 30.31 in 10.0 mi NNE 10.4 mph - N/A   Overcast
4:55 AM 32.0 °F 24.8 °F 12.2 °F 44% 30.31 in 10.0 mi NNE 8.1 mph - N/A   Overcast
5:15 AM 32.0 °F 24.8 °F 12.2 °F 44% 30.31 in 10.0 mi NNE 8.1 mph - N/A   Overcast
5:35 AM 32.0 °F 25.6 °F 12.2 °F 44% 30.31 in 10.0 mi NNE 6.9 mph - N/A   Overcast
5:55 AM 32.0 °F 24.2 °F 12.2 °F 44% 30.31 in 10.0 mi NNE 9.2 mph - N/A   Overcast
6:15 AM 32.0 °F 25.6 °F 12.2 °F 44% 30.31 in 10.0 mi NNE 6.9 mph - N/A   Overcast
6:35 AM 32.0 °F 23.6 °F 14.0 °F 48% 30.31 in 10.0 mi NNE 10.4 mph - N/A   Overcast
6:55 AM 32.0 °F 24.8 °F 14.0 °F 48% 30.31 in 10.0 mi North 8.1 mph - N/A   Overcast
7:15 AM 32.0 °F 24.8 °F 14.0 °F 48% 30.31 in 10.0 mi NNE 8.1 mph - N/A   Overcast
7:35 AM 32.0 °F 24.8 °F 14.0 °F 48% 30.31 in 10.0 mi NNE 8.1 mph - N/A   Overcast
8:15 AM 32.0 °F 23.6 °F 14.0 °F 48% 30.30 in 10.0 mi North 10.4 mph - N/A   Overcast
8:35 AM 32.0 °F 26.4 °F 15.8 °F 51% 30.30 in 10.0 mi NNE 5.8 mph - N/A   Overcast
8:55 AM 33.8 °F 26.4 °F 17.6 °F 52% 30.29 in 10.0 mi North 9.2 mph - N/A   Overcast
9:55 AM 33.8 °F 27.0 °F 19.4 °F 56% 30.28 in 10.0 mi North 8.1 mph - N/A   Overcast
10:15 AM 35.6 °F 31.7 °F 19.4 °F 52% 30.28 in 10.0 mi NNE 4.6 mph - N/A   Overcast
10:35 AM 35.6 °F 29.2 °F 19.4 °F 52% 30.28 in 10.0 mi North 8.1 mph - N/A   Overcast
10:55 AM 35.6 °F 29.9 °F 21.2 °F 56% 30.27 in 10.0 mi NNE 6.9 mph - N/A   Overcast
11:15 AM 37.4 °F 30.8 °F 21.2 °F 52% 30.26 in 10.0 mi North 9.2 mph - N/A   Overcast
11:35 AM 37.4 °F 32.1 °F 23.0 °F 56% 30.24 in 10.0 mi NE 6.9 mph - N/A   Overcast
11:55 AM 37.4 °F 31.4 °F 23.0 °F 56% 30.22 in 10.0 mi North 8.1 mph - N/A   Overcast
12:15 PM 39.2 °F 35.0 °F 23.0 °F 52% 30.21 in 10.0 mi NNE 5.8 mph - N/A   Overcast
12:35 PM 39.2 °F 35.0 °F 23.0 °F 52% 30.20 in 10.0 mi NNE 5.8 mph - N/A   Overcast
12:55 PM 41.0 °F 36.4 °F 24.8 °F 53% 30.19 in 10.0 mi North 6.9 mph - N/A   Overcast
1:15 PM 41.0 °F 36.4 °F 26.6 °F 57% 30.18 in 10.0 mi North 6.9 mph - N/A   Overcast
1:35 PM 41.0 °F 35.8 °F 26.6 °F 57% 30.17 in 10.0 mi North 8.1 mph - N/A   Overcast
1:55 PM 41.0 °F 37.1 °F 26.6 °F 57% 30.15 in 10.0 mi NNE 5.8 mph - N/A   Overcast
2:15 PM 41.0 °F 34.7 °F 26.6 °F 57% 30.15 in 10.0 mi North 10.4 mph - N/A   Overcast
2:55 PM 41.0 °F 35.8 °F 28.4 °F 61% 30.14 in 10.0 mi North 8.1 mph - N/A   Overcast
3:15 PM 41.0 °F 35.8 °F 28.4 °F 61% 30.14 in 10.0 mi North 8.1 mph - N/A   Overcast
3:35 PM 41.0 °F 37.1 °F 28.4 °F 61% 30.13 in 10.0 mi North 5.8 mph - N/A   Overcast
3:55 PM 41.0 °F 36.4 °F 28.4 °F 61% 30.12 in 10.0 mi NNE 6.9 mph - N/A   Overcast
4:15 PM 41.0 °F 37.1 °F 28.4 °F 61% 30.12 in 10.0 mi NNE 5.8 mph - N/A   Overcast
4:55 PM 41.0 °F 35.8 °F 30.2 °F 65% 30.12 in 10.0 mi North 8.1 mph - N/A   Overcast
5:15 PM 41.0 °F 35.2 °F 30.2 °F 65% 30.11 in 10.0 mi North 9.2 mph - N/A   Overcast
5:35 PM 41.0 °F 35.8 °F 30.2 °F 65% 30.11 in 10.0 mi North 8.1 mph - N/A   Overcast
5:55 PM 41.0 °F 37.1 °F 30.2 °F 65% 30.11 in 10.0 mi NNE 5.8 mph - N/A   Overcast
6:35 PM 39.2 °F 33.6 °F 32.0 °F 75% 30.11 in 10.0 mi North 8.1 mph - N/A   Overcast
6:55 PM 39.2 °F 34.2 °F 32.0 °F 75% 30.11 in 10.0 mi North 6.9 mph - N/A   Overcast
7:15 PM 39.2 °F 35.0 °F 32.0 °F 75% 30.10 in 10.0 mi NNE 5.8 mph - N/A   Overcast
7:35 PM 39.2 °F 34.2 °F 32.0 °F 75% 30.10 in 10.0 mi NNE 6.9 mph - N/A   Overcast
7:55 PM 39.2 °F 35.0 °F 32.0 °F 75% 30.09 in 10.0 mi NNE 5.8 mph - N/A   Overcast
8:15 PM 39.2 °F 35.0 °F 32.0 °F 75% 30.08 in 10.0 mi NE 5.8 mph - N/A   Overcast
8:35 PM 39.2 °F 35.0 °F 32.0 °F 75% 30.08 in 10.0 mi NNE 5.8 mph - N/A   Overcast
8:55 PM 39.2 °F 37.0 °F 32.0 °F 75% 30.07 in 10.0 mi NNE 3.5 mph - N/A   Overcast
9:15 PM 39.2 °F 37.0 °F 32.0 °F 75% 30.07 in 10.0 mi NNE 3.5 mph - N/A   Overcast
9:35 PM 39.2 °F 35.9 °F 32.0 °F 75% 30.06 in 10.0 mi NNE 4.6 mph - N/A   Overcast
9:55 PM 39.2 °F 35.0 °F 32.0 °F 75% 30.06 in 10.0 mi North 5.8 mph - N/A   Overcast
10:15 PM 39.2 °F 35.0 °F 32.0 °F 75% 30.05 in 10.0 mi North 5.8 mph - N/A   Overcast
10:35 PM 39.2 °F 33.6 °F 32.0 °F 75% 30.04 in 10.0 mi NNE 8.1 mph - N/A   Overcast
10:55 PM 37.4 °F 31.4 °F 32.0 °F 81% 30.03 in 10.0 mi NNE 8.1 mph - N/A   Overcast
11:15 PM 37.4 °F 33.8 °F 33.8 °F 87% 30.03 in 10.0 mi North 4.6 mph - N/A   Overcast
11:35 PM 37.4 °F 33.8 °F 33.8 °F 87% 30.02 in 10.0 mi North 4.6 mph - N/A   Overcast
11:55 PM 37.4 °F 32.1 °F 33.8 °F 87% 30.01 in 10.0 mi NNE 6.9 mph - N/A   Overcast